Year,Month,Day,Hour,Minute,Value (Times are PST for temperature in C)
2010,07,30,00,00,13.10
2010,07,30,00,01,13.10
2010,07,30,00,02,13.00
2010,07,30,00,03,13.00
2010,07,30,00,04,13.00
2010,07,30,00,05,13.00
2010,07,30,00,06,12.90
2010,07,30,00,07,12.90
2010,07,30,00,08,12.90
2010,07,30,00,09,12.90
2010,07,30,00,10,12.90
2010,07,30,00,11,13.00
2010,07,30,00,12,13.00
2010,07,30,00,13,13.10
2010,07,30,00,14,13.10
2010,07,30,00,15,13.10
2010,07,30,00,16,13.10
2010,07,30,00,17,13.20
2010,07,30,00,18,13.20
2010,07,30,00,19,13.20
2010,07,30,00,20,13.20
2010,07,30,00,21,13.20
2010,07,30,00,22,13.20
2010,07,30,00,23,13.20
2010,07,30,00,24,13.20
2010,07,30,00,25,13.20
2010,07,30,00,26,13.20
2010,07,30,00,27,13.20
2010,07,30,00,28,13.20
2010,07,30,00,29,13.20
2010,07,30,00,30,13.20
2010,07,30,00,31,13.20
2010,07,30,00,32,13.20
2010,07,30,00,33,13.20
2010,07,30,00,34,13.20
2010,07,30,00,35,13.10
2010,07,30,00,36,13.10
2010,07,30,00,37,13.10
2010,07,30,00,38,13.00
2010,07,30,00,39,13.00
2010,07,30,00,40,13.00
2010,07,30,00,41,13.00
2010,07,30,00,42,13.00
2010,07,30,00,43,12.90
2010,07,30,00,44,12.90
2010,07,30,00,45,12.90
2010,07,30,00,46,12.90
2010,07,30,00,47,12.90
2010,07,30,00,48,12.90
2010,07,30,00,49,12.90
2010,07,30,00,50,12.90
2010,07,30,00,51,12.90
2010,07,30,00,52,12.90
2010,07,30,00,53,12.90
2010,07,30,00,54,12.90
2010,07,30,00,55,12.90
2010,07,30,00,56,12.90
2010,07,30,00,57,12.90
2010,07,30,00,58,12.90
2010,07,30,00,59,12.90
2010,07,30,01,00,12.90
2010,07,30,01,01,12.90
2010,07,30,01,02,12.90
2010,07,30,01,03,12.90
2010,07,30,01,04,12.90
2010,07,30,01,05,12.90
2010,07,30,01,06,12.90
2010,07,30,01,07,12.90
2010,07,30,01,08,12.80
2010,07,30,01,09,12.80
2010,07,30,01,10,12.80
2010,07,30,01,11,12.80
2010,07,30,01,12,12.80
2010,07,30,01,13,12.80
2010,07,30,01,14,12.80
2010,07,30,01,15,12.80
2010,07,30,01,16,12.80
2010,07,30,01,17,12.80
2010,07,30,01,18,12.80
2010,07,30,01,19,12.80
2010,07,30,01,20,12.70
2010,07,30,01,21,12.70
2010,07,30,01,22,12.70
2010,07,30,01,23,12.70
2010,07,30,01,24,12.70
2010,07,30,01,25,12.60
2010,07,30,01,26,12.60
2010,07,30,01,27,12.60
2010,07,30,01,28,12.60
2010,07,30,01,29,12.60
2010,07,30,01,30,12.50
2010,07,30,01,31,12.50
2010,07,30,01,32,12.50
2010,07,30,01,33,12.50
2010,07,30,01,34,12.50
2010,07,30,01,35,12.50
2010,07,30,01,36,12.50
2010,07,30,01,37,12.40
2010,07,30,01,38,12.40
2010,07,30,01,39,12.50
2010,07,30,01,40,12.50
2010,07,30,01,41,12.50
2010,07,30,01,42,12.40
2010,07,30,01,43,12.40
2010,07,30,01,44,12.40
2010,07,30,01,45,12.40
2010,07,30,01,46,12.40
2010,07,30,01,47,12.40
2010,07,30,01,48,12.40
2010,07,30,01,49,12.40
2010,07,30,01,50,12.40
2010,07,30,01,51,12.40
2010,07,30,01,52,12.40
2010,07,30,01,53,12.40
2010,07,30,01,54,12.30
2010,07,30,01,55,12.30
2010,07,30,01,56,12.30
2010,07,30,01,57,12.30
2010,07,30,01,58,12.30
2010,07,30,01,59,12.30
2010,07,30,02,00,12.30
2010,07,30,02,01,12.30
2010,07,30,02,02,12.30
2010,07,30,02,03,12.30
2010,07,30,02,04,12.30
2010,07,30,02,05,12.30
2010,07,30,02,06,12.20
2010,07,30,02,07,12.20
2010,07,30,02,08,12.20
2010,07,30,02,09,12.20
2010,07,30,02,10,12.20
2010,07,30,02,11,12.20
2010,07,30,02,12,12.20
2010,07,30,02,13,12.20
2010,07,30,02,14,12.20
2010,07,30,02,15,12.20
2010,07,30,02,16,12.20
2010,07,30,02,17,12.20
2010,07,30,02,18,12.10
2010,07,30,02,19,12.10
2010,07,30,02,20,12.10
2010,07,30,02,21,12.10
2010,07,30,02,22,12.10
2010,07,30,02,23,12.10
2010,07,30,02,24,12.10
2010,07,30,02,25,12.10
2010,07,30,02,26,12.10
2010,07,30,02,27,12.10
2010,07,30,02,28,12.10
2010,07,30,02,29,12.00
2010,07,30,02,30,12.00
2010,07,30,02,31,12.00
2010,07,30,02,32,12.00
2010,07,30,02,33,12.00
2010,07,30,02,34,12.00
2010,07,30,02,35,12.00
2010,07,30,02,36,11.90
2010,07,30,02,37,11.90
2010,07,30,02,38,11.90
2010,07,30,02,39,11.90
2010,07,30,02,40,11.90
2010,07,30,02,41,11.80
2010,07,30,02,42,11.80
2010,07,30,02,43,11.80
2010,07,30,02,44,11.80
2010,07,30,02,45,11.80
2010,07,30,02,46,11.80
2010,07,30,02,47,11.80
2010,07,30,02,48,11.80
2010,07,30,02,49,11.80
2010,07,30,02,50,11.80
2010,07,30,02,51,11.80
2010,07,30,02,52,11.80
2010,07,30,02,53,11.80
2010,07,30,02,54,11.80
2010,07,30,02,55,11.80
2010,07,30,02,56,11.80
2010,07,30,02,57,11.80
2010,07,30,02,58,11.80
2010,07,30,02,59,11.70
2010,07,30,03,00,11.70
2010,07,30,03,01,11.70
2010,07,30,03,02,11.70
2010,07,30,03,03,11.70
2010,07,30,03,04,11.70
2010,07,30,03,05,11.60
2010,07,30,03,06,11.60
2010,07,30,03,07,11.60
2010,07,30,03,08,11.60
2010,07,30,03,09,11.60
2010,07,30,03,10,11.60
2010,07,30,03,11,11.60
2010,07,30,03,12,11.60
2010,07,30,03,13,11.60
2010,07,30,03,14,11.60
2010,07,30,03,15,11.60
2010,07,30,03,16,11.60
2010,07,30,03,17,11.60
2010,07,30,03,18,11.60
2010,07,30,03,19,11.60
2010,07,30,03,20,11.60
2010,07,30,03,21,11.50
2010,07,30,03,22,11.40
2010,07,30,03,23,11.40
2010,07,30,03,24,11.40
2010,07,30,03,25,11.40
2010,07,30,03,26,11.40
2010,07,30,03,27,11.40
2010,07,30,03,28,11.40
2010,07,30,03,29,11.40
2010,07,30,03,30,11.40
2010,07,30,03,31,11.40
2010,07,30,03,32,11.40
2010,07,30,03,33,11.40
2010,07,30,03,34,11.40
2010,07,30,03,35,11.40
2010,07,30,03,36,11.40
2010,07,30,03,37,11.40
2010,07,30,03,38,11.40
2010,07,30,03,39,11.40
2010,07,30,03,40,11.40
2010,07,30,03,41,11.40
2010,07,30,03,42,11.40
2010,07,30,03,43,11.40
2010,07,30,03,44,11.40
2010,07,30,03,45,11.40
2010,07,30,03,46,11.40
2010,07,30,03,47,11.40
2010,07,30,03,48,11.40
2010,07,30,03,49,11.40
2010,07,30,03,50,11.40
2010,07,30,03,51,11.40
2010,07,30,03,52,11.30
2010,07,30,03,53,11.30
2010,07,30,03,54,11.30
2010,07,30,03,55,11.30
2010,07,30,03,56,11.30
2010,07,30,03,57,11.30
2010,07,30,03,58,11.30
2010,07,30,03,59,11.30
2010,07,30,04,00,11.30
2010,07,30,04,01,11.30
2010,07,30,04,02,11.30
2010,07,30,04,03,11.30
2010,07,30,04,04,11.20
2010,07,30,04,05,11.20
2010,07,30,04,06,11.20
2010,07,30,04,07,11.20
2010,07,30,04,08,11.20
2010,07,30,04,09,11.20
2010,07,30,04,10,11.20
2010,07,30,04,11,11.10
2010,07,30,04,12,11.10
2010,07,30,04,13,11.10
2010,07,30,04,14,11.10
2010,07,30,04,15,11.10
2010,07,30,04,16,11.10
2010,07,30,04,17,11.10
2010,07,30,04,18,11.00
2010,07,30,04,19,10.90
2010,07,30,04,20,10.90
2010,07,30,04,21,10.90
2010,07,30,04,22,10.90
2010,07,30,04,23,10.90
2010,07,30,04,24,10.90
2010,07,30,04,25,10.90
2010,07,30,04,26,10.90
2010,07,30,04,27,10.90
2010,07,30,04,28,10.90
2010,07,30,04,29,10.90
2010,07,30,04,30,10.90
2010,07,30,04,31,10.90
2010,07,30,04,32,10.80
2010,07,30,04,33,10.80
2010,07,30,04,34,10.80
2010,07,30,04,35,10.80
2010,07,30,04,36,10.80
2010,07,30,04,37,10.70
2010,07,30,04,38,10.70
2010,07,30,04,39,10.70
2010,07,30,04,40,10.70
2010,07,30,04,41,10.70
2010,07,30,04,42,10.70
2010,07,30,04,43,10.70
2010,07,30,04,44,10.60
2010,07,30,04,45,10.60
2010,07,30,04,46,10.60
2010,07,30,04,47,10.60
2010,07,30,04,48,10.60
2010,07,30,04,49,10.60
2010,07,30,04,50,10.60
2010,07,30,04,51,10.60
2010,07,30,04,52,10.60
2010,07,30,04,53,10.60
2010,07,30,04,54,10.60
2010,07,30,04,55,10.60
2010,07,30,04,56,10.60
2010,07,30,04,57,10.60
2010,07,30,04,58,10.60
2010,07,30,04,59,10.50
2010,07,30,05,00,10.40
2010,07,30,05,01,10.40
2010,07,30,05,02,10.40
2010,07,30,05,03,10.40
2010,07,30,05,04,10.40
2010,07,30,05,05,10.40
2010,07,30,05,06,10.40
2010,07,30,05,07,10.40
2010,07,30,05,08,10.40
2010,07,30,05,09,10.40
2010,07,30,05,10,10.40
2010,07,30,05,11,10.40
2010,07,30,05,12,10.40
2010,07,30,05,13,10.40
2010,07,30,05,14,10.40
2010,07,30,05,15,10.40
2010,07,30,05,16,10.40
2010,07,30,05,17,10.40
2010,07,30,05,18,10.40
2010,07,30,05,19,10.30
2010,07,30,05,20,10.30
2010,07,30,05,21,10.30
2010,07,30,05,22,10.30
2010,07,30,05,23,10.30
2010,07,30,05,24,10.20
2010,07,30,05,25,10.20
2010,07,30,05,26,10.20
2010,07,30,05,27,10.20
2010,07,30,05,28,10.20
2010,07,30,05,29,10.20
2010,07,30,05,30,10.20
2010,07,30,05,31,10.20
2010,07,30,05,32,10.10
2010,07,30,05,33,10.10
2010,07,30,05,34,10.10
2010,07,30,05,35,10.10
2010,07,30,05,36,10.10
2010,07,30,05,37,10.10
2010,07,30,05,38,10.10
2010,07,30,05,39,10.10
2010,07,30,05,40,10.10
2010,07,30,05,41,10.10
2010,07,30,05,42,10.10
2010,07,30,05,43,10.10
2010,07,30,05,44,10.10
2010,07,30,05,45,10.10
2010,07,30,05,46,10.10
2010,07,30,05,47,10.10
2010,07,30,05,48,10.10
2010,07,30,05,49,10.10
2010,07,30,05,50,10.10
2010,07,30,05,51,10.10
2010,07,30,05,52,10.10
2010,07,30,05,53,10.10
2010,07,30,05,54,10.10
2010,07,30,05,55,10.10
2010,07,30,05,56,10.10
2010,07,30,05,57,10.10
2010,07,30,05,58,10.10
2010,07,30,05,59,10.10
2010,07,30,06,00,10.10
2010,07,30,06,01,10.10
2010,07,30,06,02,10.10
2010,07,30,06,03,10.10
2010,07,30,06,04,10.10
2010,07,30,06,05,10.10
2010,07,30,06,06,10.10
2010,07,30,06,07,10.10
2010,07,30,06,08,10.10
2010,07,30,06,09,10.10
2010,07,30,06,10,10.10
2010,07,30,06,11,10.10
2010,07,30,06,12,10.10
2010,07,30,06,13,10.10
2010,07,30,06,14,10.10
2010,07,30,06,15,10.10
2010,07,30,06,16,10.10
2010,07,30,06,17,10.10
2010,07,30,06,18,10.10
2010,07,30,06,19,10.00
2010,07,30,06,20,9.90
2010,07,30,06,21,9.90
2010,07,30,06,22,9.90
2010,07,30,06,23,9.90
2010,07,30,06,24,9.90
2010,07,30,06,25,9.90
2010,07,30,06,26,9.90
2010,07,30,06,27,9.90
2010,07,30,06,28,9.90
2010,07,30,06,29,9.90
2010,07,30,06,30,10.00
2010,07,30,06,31,10.10
2010,07,30,06,32,10.10
2010,07,30,06,33,10.10
2010,07,30,06,34,10.10
2010,07,30,06,35,10.10
2010,07,30,06,36,10.10
2010,07,30,06,37,10.10
2010,07,30,06,38,10.10
2010,07,30,06,39,10.10
2010,07,30,06,40,10.10
2010,07,30,06,41,10.10
2010,07,30,06,42,10.10
2010,07,30,06,43,10.10
2010,07,30,06,44,10.20
2010,07,30,06,45,10.20
2010,07,30,06,46,10.20
2010,07,30,06,47,10.30
2010,07,30,06,48,10.30
2010,07,30,06,49,10.40
2010,07,30,06,50,10.40
2010,07,30,06,51,10.40
2010,07,30,06,52,10.40
2010,07,30,06,53,10.40
2010,07,30,06,54,10.50
2010,07,30,06,55,10.60
2010,07,30,06,56,10.60
2010,07,30,06,57,10.60
2010,07,30,06,58,10.60
2010,07,30,06,59,10.60
2010,07,30,07,00,10.70
2010,07,30,07,01,10.70
2010,07,30,07,02,10.70
2010,07,30,07,03,10.70
2010,07,30,07,04,10.80
2010,07,30,07,05,10.80
2010,07,30,07,06,10.90
2010,07,30,07,07,10.90
2010,07,30,07,08,11.00
2010,07,30,07,09,11.10
2010,07,30,07,10,11.10
2010,07,30,07,11,11.10
2010,07,30,07,12,11.10
2010,07,30,07,13,11.10
2010,07,30,07,14,11.10
2010,07,30,07,15,11.20
2010,07,30,07,16,11.20
2010,07,30,07,17,11.30
2010,07,30,07,18,11.40
2010,07,30,07,19,11.40
2010,07,30,07,20,11.50
2010,07,30,07,21,11.60
2010,07,30,07,22,11.70
2010,07,30,07,23,11.70
2010,07,30,07,24,11.80
2010,07,30,07,25,11.80
2010,07,30,07,26,11.80
2010,07,30,07,27,11.80
2010,07,30,07,28,11.80
2010,07,30,07,29,11.90
2010,07,30,07,30,12.00
2010,07,30,07,31,12.00
2010,07,30,07,32,12.10
2010,07,30,07,33,12.20
2010,07,30,07,34,12.20
2010,07,30,07,35,12.20
2010,07,30,07,36,12.20
2010,07,30,07,37,12.20
2010,07,30,07,38,12.20
2010,07,30,07,39,12.20
2010,07,30,07,40,12.20
2010,07,30,07,41,12.30
2010,07,30,07,42,12.30
2010,07,30,07,43,12.30
2010,07,30,07,44,12.40
2010,07,30,07,45,12.40
2010,07,30,07,46,12.50
2010,07,30,07,47,12.50
2010,07,30,07,48,12.50
2010,07,30,07,49,12.60
2010,07,30,07,50,12.60
2010,07,30,07,51,12.60
2010,07,30,07,52,12.70
2010,07,30,07,53,12.70
2010,07,30,07,54,12.70
2010,07,30,07,55,12.80
2010,07,30,07,56,12.80
2010,07,30,07,57,12.80
2010,07,30,07,58,12.80
2010,07,30,07,59,12.90
2010,07,30,08,00,13.00
2010,07,30,08,01,13.00
2010,07,30,08,02,13.20
2010,07,30,08,03,13.30
2010,07,30,08,04,13.40
2010,07,30,08,05,13.50
2010,07,30,08,06,13.60
2010,07,30,08,07,13.70
2010,07,30,08,08,13.70
2010,07,30,08,09,13.70
2010,07,30,08,10,13.70
2010,07,30,08,11,13.80
2010,07,30,08,12,13.90
2010,07,30,08,13,14.00
2010,07,30,08,14,14.00
2010,07,30,08,15,14.10
2010,07,30,08,16,14.20
2010,07,30,08,17,14.30
2010,07,30,08,18,14.30
2010,07,30,08,19,14.40
2010,07,30,08,20,14.50
2010,07,30,08,21,14.50
2010,07,30,08,22,14.50
2010,07,30,08,23,14.50
2010,07,30,08,24,14.60
2010,07,30,08,25,14.60
2010,07,30,08,26,14.70
2010,07,30,08,27,14.70
2010,07,30,08,28,14.70
2010,07,30,08,29,14.80
2010,07,30,08,30,14.80
2010,07,30,08,31,14.90
2010,07,30,08,32,15.00
2010,07,30,08,33,15.10
2010,07,30,08,34,15.10
2010,07,30,08,35,15.20
2010,07,30,08,36,15.10
2010,07,30,08,37,15.10
2010,07,30,08,38,15.10
2010,07,30,08,39,15.10
2010,07,30,08,40,15.10
2010,07,30,08,41,15.10
2010,07,30,08,42,15.10
2010,07,30,08,43,15.20
2010,07,30,08,44,15.20
2010,07,30,08,45,15.20
2010,07,30,08,46,15.30
2010,07,30,08,47,15.30
2010,07,30,08,48,15.40
2010,07,30,08,49,15.50
2010,07,30,08,50,15.50
2010,07,30,08,51,15.50
2010,07,30,08,52,15.50
2010,07,30,08,53,15.50
2010,07,30,08,54,15.50
2010,07,30,08,55,15.50
2010,07,30,08,56,15.50
2010,07,30,08,57,15.60
2010,07,30,08,58,15.60
2010,07,30,08,59,15.60
2010,07,30,09,00,15.60
2010,07,30,09,01,15.70
2010,07,30,09,02,15.70
2010,07,30,09,03,15.70
2010,07,30,09,04,15.70
2010,07,30,09,05,15.70
2010,07,30,09,06,15.60
2010,07,30,09,07,15.60
2010,07,30,09,08,15.60
2010,07,30,09,09,15.50
2010,07,30,09,10,15.60
2010,07,30,09,11,15.60
2010,07,30,09,12,15.60
2010,07,30,09,13,15.60
2010,07,30,09,14,15.60
2010,07,30,09,15,15.50
2010,07,30,09,16,15.50
2010,07,30,09,17,15.50
2010,07,30,09,18,15.50
2010,07,30,09,19,15.60
2010,07,30,09,20,15.60
2010,07,30,09,21,15.70
2010,07,30,09,22,15.70
2010,07,30,09,23,15.70
2010,07,30,09,24,15.70
2010,07,30,09,25,15.80
2010,07,30,09,26,15.80
2010,07,30,09,27,15.80
2010,07,30,09,28,15.80
2010,07,30,09,29,15.80
2010,07,30,09,30,15.90
2010,07,30,09,31,16.00
2010,07,30,09,32,16.10
2010,07,30,09,33,16.10
2010,07,30,09,34,16.20
2010,07,30,09,35,16.30
2010,07,30,09,36,16.30
2010,07,30,09,37,16.40
2010,07,30,09,38,16.40
2010,07,30,09,39,16.40
2010,07,30,09,40,16.40
2010,07,30,09,41,16.40
2010,07,30,09,42,16.50
2010,07,30,09,43,16.60
2010,07,30,09,44,16.70
2010,07,30,09,45,16.70
2010,07,30,09,46,16.70
2010,07,30,09,47,16.70
2010,07,30,09,48,16.60
2010,07,30,09,49,16.50
2010,07,30,09,50,16.40
2010,07,30,09,51,16.40
2010,07,30,09,52,16.40
2010,07,30,09,53,16.40
2010,07,30,09,54,16.50
2010,07,30,09,55,16.60
2010,07,30,09,56,16.70
2010,07,30,09,57,16.70
2010,07,30,09,58,16.70
2010,07,30,09,59,16.70
2010,07,30,10,00,16.70
2010,07,30,10,01,16.70
2010,07,30,10,02,16.70
2010,07,30,10,03,16.70
2010,07,30,10,04,16.80
2010,07,30,10,05,16.80
2010,07,30,10,06,16.80
2010,07,30,10,07,16.90
2010,07,30,10,08,16.90
2010,07,30,10,09,16.90
2010,07,30,10,10,16.90
2010,07,30,10,11,17.00
2010,07,30,10,12,17.10
2010,07,30,10,13,17.20
2010,07,30,10,14,17.20
2010,07,30,10,15,17.30
2010,07,30,10,16,17.30
2010,07,30,10,17,17.20
2010,07,30,10,18,17.30
2010,07,30,10,19,17.30
2010,07,30,10,20,17.30
2010,07,30,10,21,17.50
2010,07,30,10,22,17.60
2010,07,30,10,23,17.70
2010,07,30,10,24,17.70
2010,07,30,10,25,17.70
2010,07,30,10,26,17.60
2010,07,30,10,27,17.70
2010,07,30,10,28,17.70
2010,07,30,10,29,17.70
2010,07,30,10,30,17.70
2010,07,30,10,31,17.60
2010,07,30,10,32,17.50
2010,07,30,10,33,17.40
2010,07,30,10,34,17.40
2010,07,30,10,35,17.40
2010,07,30,10,36,17.40
2010,07,30,10,37,17.30
2010,07,30,10,38,17.30
2010,07,30,10,39,17.30
2010,07,30,10,40,17.20
2010,07,30,10,41,17.20
2010,07,30,10,42,17.20
2010,07,30,10,43,17.20
2010,07,30,10,44,17.20
2010,07,30,10,45,17.20
2010,07,30,10,46,17.20
2010,07,30,10,47,17.10
2010,07,30,10,48,16.70
2010,07,30,10,49,16.50
2010,07,30,10,50,16.30
2010,07,30,10,51,16.20
2010,07,30,10,52,16.10
2010,07,30,10,53,15.90
2010,07,30,10,54,15.80
2010,07,30,10,55,15.80
2010,07,30,10,56,15.60
2010,07,30,10,57,15.40
2010,07,30,10,58,15.20
2010,07,30,10,59,15.10
2010,07,30,11,00,15.10
2010,07,30,11,01,15.00
2010,07,30,11,02,14.90
2010,07,30,11,03,15.00
2010,07,30,11,04,15.10
2010,07,30,11,05,15.10
2010,07,30,11,06,15.20
2010,07,30,11,07,15.30
2010,07,30,11,08,15.30
2010,07,30,11,09,15.20
2010,07,30,11,10,15.20
2010,07,30,11,11,15.30
2010,07,30,11,12,15.30
2010,07,30,11,13,15.20
2010,07,30,11,14,15.20
2010,07,30,11,15,15.20
2010,07,30,11,16,15.30
2010,07,30,11,17,15.30
2010,07,30,11,18,15.30
2010,07,30,11,19,15.40
2010,07,30,11,20,15.30
2010,07,30,11,21,15.40
2010,07,30,11,22,15.60
2010,07,30,11,23,15.70
2010,07,30,11,24,15.80
2010,07,30,11,25,15.70
2010,07,30,11,26,15.60
2010,07,30,11,27,15.50
2010,07,30,11,28,15.50
2010,07,30,11,29,15.60
2010,07,30,11,30,15.70
2010,07,30,11,31,15.70
2010,07,30,11,32,15.70
2010,07,30,11,33,15.60
2010,07,30,11,34,15.50
2010,07,30,11,35,15.50
2010,07,30,11,36,15.70
2010,07,30,11,37,15.80
2010,07,30,11,38,15.80
2010,07,30,11,39,16.00
2010,07,30,11,40,15.90
2010,07,30,11,41,15.90
2010,07,30,11,42,15.80
2010,07,30,11,43,15.80
2010,07,30,11,44,15.80
2010,07,30,11,45,15.80
2010,07,30,11,46,15.80
2010,07,30,11,47,15.70
2010,07,30,11,48,15.60
2010,07,30,11,49,15.50
2010,07,30,11,50,15.50
2010,07,30,11,51,15.60
2010,07,30,11,52,15.50
2010,07,30,11,53,15.40
2010,07,30,11,54,15.30
2010,07,30,11,55,15.30
2010,07,30,11,56,15.20
2010,07,30,11,57,15.00
2010,07,30,11,58,15.00
2010,07,30,11,59,15.10
2010,07,30,12,00,15.20
2010,07,30,12,01,15.30
2010,07,30,12,02,15.40
2010,07,30,12,03,15.40
2010,07,30,12,04,15.40
2010,07,30,12,05,15.50
2010,07,30,12,06,15.50
2010,07,30,12,07,15.30
2010,07,30,12,08,15.30
2010,07,30,12,09,15.30
2010,07,30,12,10,15.30
2010,07,30,12,11,15.20
2010,07,30,12,12,15.30
2010,07,30,12,13,15.50
2010,07,30,12,14,15.50
2010,07,30,12,15,15.50
2010,07,30,12,16,15.40
2010,07,30,12,17,15.40
2010,07,30,12,18,15.50
2010,07,30,12,19,15.50
2010,07,30,12,20,15.60
2010,07,30,12,21,15.60
2010,07,30,12,22,15.60
2010,07,30,12,23,15.70
2010,07,30,12,24,15.90
2010,07,30,12,25,16.00
2010,07,30,12,26,16.00
2010,07,30,12,27,15.90
2010,07,30,12,28,15.80
2010,07,30,12,29,15.80
2010,07,30,12,30,15.80
2010,07,30,12,31,15.70
2010,07,30,12,32,15.60
2010,07,30,12,33,15.70
2010,07,30,12,34,15.70
2010,07,30,12,35,15.80
2010,07,30,12,36,15.80
2010,07,30,12,37,15.80
2010,07,30,12,38,15.80
2010,07,30,12,39,15.80
2010,07,30,12,40,15.80
2010,07,30,12,41,15.90
2010,07,30,12,42,15.90
2010,07,30,12,43,15.90
2010,07,30,12,44,15.80
2010,07,30,12,45,15.80
2010,07,30,12,46,15.90
2010,07,30,12,47,15.90
2010,07,30,12,48,16.00
2010,07,30,12,49,16.00
2010,07,30,12,50,16.00
2010,07,30,12,51,16.10
2010,07,30,12,52,16.20
2010,07,30,12,53,16.20
2010,07,30,12,54,16.10
2010,07,30,12,55,16.20
2010,07,30,12,56,16.20
2010,07,30,12,57,16.20
2010,07,30,12,58,16.20
2010,07,30,12,59,16.30
2010,07,30,13,00,16.20
2010,07,30,13,01,16.20
2010,07,30,13,02,16.10
2010,07,30,13,03,16.10
2010,07,30,13,04,16.10
2010,07,30,13,05,16.10
2010,07,30,13,06,15.90
2010,07,30,13,07,15.80
2010,07,30,13,08,15.70
2010,07,30,13,09,15.70
2010,07,30,13,10,15.70
2010,07,30,13,11,15.80
2010,07,30,13,12,15.80
2010,07,30,13,13,15.80
2010,07,30,13,14,15.80
2010,07,30,13,15,15.80
2010,07,30,13,16,15.80
2010,07,30,13,17,15.80
2010,07,30,13,18,15.80
2010,07,30,13,19,15.80
2010,07,30,13,20,15.90
2010,07,30,13,21,15.90
2010,07,30,13,22,15.80
2010,07,30,13,23,16.00
2010,07,30,13,24,16.10
2010,07,30,13,25,16.10
2010,07,30,13,26,16.10
2010,07,30,13,27,16.20
2010,07,30,13,28,16.30
2010,07,30,13,29,16.40
2010,07,30,13,30,16.50
2010,07,30,13,31,16.50
2010,07,30,13,32,16.30
2010,07,30,13,33,16.30
2010,07,30,13,34,16.40
2010,07,30,13,35,16.40
2010,07,30,13,36,16.50
2010,07,30,13,37,16.60
2010,07,30,13,38,16.60
2010,07,30,13,39,16.60
2010,07,30,13,40,16.60
2010,07,30,13,41,16.60
2010,07,30,13,42,16.60
2010,07,30,13,43,16.60
2010,07,30,13,44,16.60
2010,07,30,13,45,16.60
2010,07,30,13,46,16.60
2010,07,30,13,47,16.60
2010,07,30,13,48,16.70
2010,07,30,13,49,16.70
2010,07,30,13,50,16.70
2010,07,30,13,51,16.60
2010,07,30,13,52,16.60
2010,07,30,13,53,16.40
2010,07,30,13,54,16.60
2010,07,30,13,55,16.60
2010,07,30,13,56,16.40
2010,07,30,13,57,16.50
2010,07,30,13,58,16.40
2010,07,30,13,59,16.40
2010,07,30,14,00,16.40
2010,07,30,14,01,16.40
2010,07,30,14,02,16.40
2010,07,30,14,03,16.40
2010,07,30,14,04,16.40
2010,07,30,14,05,16.30
2010,07,30,14,06,16.30
2010,07,30,14,07,16.30
2010,07,30,14,08,16.30
2010,07,30,14,09,16.20
2010,07,30,14,10,16.20
2010,07,30,14,11,16.10
2010,07,30,14,12,16.10
2010,07,30,14,13,16.10
2010,07,30,14,14,16.10
2010,07,30,14,15,16.20
2010,07,30,14,16,16.40
2010,07,30,14,17,16.40
2010,07,30,14,18,16.40
2010,07,30,14,19,16.50
2010,07,30,14,20,16.60
2010,07,30,14,21,16.70
2010,07,30,14,22,16.80
2010,07,30,14,23,16.80
2010,07,30,14,24,16.90
2010,07,30,14,25,16.90
2010,07,30,14,26,16.90
2010,07,30,14,27,17.00
2010,07,30,14,28,17.10
2010,07,30,14,29,17.10
2010,07,30,14,30,17.20
2010,07,30,14,31,17.30
2010,07,30,14,32,17.30
2010,07,30,14,33,17.20
2010,07,30,14,34,17.30
2010,07,30,14,35,17.30
2010,07,30,14,36,17.30
2010,07,30,14,37,17.30
2010,07,30,14,38,17.30
2010,07,30,14,39,17.30
2010,07,30,14,40,17.30
2010,07,30,14,41,17.30
2010,07,30,14,42,17.30
2010,07,30,14,43,17.30
2010,07,30,14,44,17.30
2010,07,30,14,45,17.30
2010,07,30,14,46,17.40
2010,07,30,14,47,17.50
2010,07,30,14,48,17.60
2010,07,30,14,49,17.70
2010,07,30,14,50,17.80
2010,07,30,14,51,17.90
2010,07,30,14,52,17.90
2010,07,30,14,53,17.90
2010,07,30,14,54,17.90
2010,07,30,14,55,17.90
2010,07,30,14,56,17.90
2010,07,30,14,57,17.90
2010,07,30,14,58,17.90
2010,07,30,14,59,17.80
2010,07,30,15,00,17.90
2010,07,30,15,01,17.90
2010,07,30,15,02,17.90
2010,07,30,15,03,17.80
2010,07,30,15,04,17.70
2010,07,30,15,05,17.60
2010,07,30,15,06,17.50
2010,07,30,15,07,17.50
2010,07,30,15,08,17.60
2010,07,30,15,09,17.60
2010,07,30,15,10,17.60
2010,07,30,15,11,17.60
2010,07,30,15,12,17.70
2010,07,30,15,13,17.60
2010,07,30,15,14,17.50
2010,07,30,15,15,17.50
2010,07,30,15,16,17.50
2010,07,30,15,17,17.40
2010,07,30,15,18,17.50
2010,07,30,15,19,17.50
2010,07,30,15,20,17.50
2010,07,30,15,21,17.50
2010,07,30,15,22,17.40
2010,07,30,15,23,17.40
2010,07,30,15,24,17.30
2010,07,30,15,25,17.40
2010,07,30,15,26,17.50
2010,07,30,15,27,17.50
2010,07,30,15,28,17.50
2010,07,30,15,29,17.50
2010,07,30,15,30,17.50
2010,07,30,15,31,17.50
2010,07,30,15,32,17.50
2010,07,30,15,33,17.50
2010,07,30,15,34,17.50
2010,07,30,15,35,17.50
2010,07,30,15,36,17.70
2010,07,30,15,37,17.80
2010,07,30,15,38,17.90
2010,07,30,15,39,17.80
2010,07,30,15,40,17.70
2010,07,30,15,41,17.60
2010,07,30,15,42,17.50
2010,07,30,15,43,17.60
2010,07,30,15,44,17.70
2010,07,30,15,45,17.90
2010,07,30,15,46,17.90
2010,07,30,15,47,17.90
2010,07,30,15,48,17.90
2010,07,30,15,49,17.90
2010,07,30,15,50,17.90
2010,07,30,15,51,18.00
2010,07,30,15,52,18.10
2010,07,30,15,53,18.20
2010,07,30,15,54,18.40
2010,07,30,15,55,18.60
2010,07,30,15,56,18.50
2010,07,30,15,57,18.40
2010,07,30,15,58,18.40
2010,07,30,15,59,18.30
2010,07,30,16,00,18.20
2010,07,30,16,01,18.20
2010,07,30,16,02,18.20
2010,07,30,16,03,18.20
2010,07,30,16,04,18.20
2010,07,30,16,05,18.20
2010,07,30,16,06,18.10
2010,07,30,16,07,18.10
2010,07,30,16,08,18.20
2010,07,30,16,09,18.10
2010,07,30,16,10,18.10
2010,07,30,16,11,18.10
2010,07,30,16,12,17.90
2010,07,30,16,13,17.90
2010,07,30,16,14,17.90
2010,07,30,16,15,17.80
2010,07,30,16,16,17.70
2010,07,30,16,17,17.70
2010,07,30,16,18,17.70
2010,07,30,16,19,17.80
2010,07,30,16,20,17.90
2010,07,30,16,21,17.90
2010,07,30,16,22,17.90
2010,07,30,16,23,17.70
2010,07,30,16,24,17.50
2010,07,30,16,25,17.40
2010,07,30,16,26,17.40
2010,07,30,16,27,17.50
2010,07,30,16,28,17.60
2010,07,30,16,29,17.70
2010,07,30,16,30,17.80
2010,07,30,16,31,17.80
2010,07,30,16,32,17.80
2010,07,30,16,33,17.70
2010,07,30,16,34,17.70
2010,07,30,16,35,17.80
2010,07,30,16,36,17.90
2010,07,30,16,37,17.90
2010,07,30,16,38,18.00
2010,07,30,16,39,18.10
2010,07,30,16,40,18.10
2010,07,30,16,41,18.10
2010,07,30,16,42,18.10
2010,07,30,16,43,18.10
2010,07,30,16,44,18.10
2010,07,30,16,45,18.20
2010,07,30,16,46,18.30
2010,07,30,16,47,18.40
2010,07,30,16,48,18.40
2010,07,30,16,49,18.30
2010,07,30,16,50,18.30
2010,07,30,16,51,18.40
2010,07,30,16,52,18.50
2010,07,30,16,53,18.60
2010,07,30,16,54,18.70
2010,07,30,16,55,18.70
2010,07,30,16,56,18.70
2010,07,30,16,57,18.60
2010,07,30,16,58,18.50
2010,07,30,16,59,18.40
2010,07,30,17,00,18.40
2010,07,30,17,01,18.40
2010,07,30,17,02,18.40
2010,07,30,17,03,18.40
2010,07,30,17,04,18.20
2010,07,30,17,05,18.10
2010,07,30,17,06,18.10
2010,07,30,17,07,17.90
2010,07,30,17,08,17.90
2010,07,30,17,09,17.90
2010,07,30,17,10,17.90
2010,07,30,17,11,17.70
2010,07,30,17,12,17.70
2010,07,30,17,13,17.80
2010,07,30,17,14,17.80
2010,07,30,17,15,17.70
2010,07,30,17,16,17.70
2010,07,30,17,17,17.70
2010,07,30,17,18,17.60
2010,07,30,17,19,17.60